Qaqortoq

KL  EN  DA
ASIAQ
Weather Now GREENLAND SURVEY
Updated [WGT/WGST] Temperature [°C] Wind [m/s] Air pressure [hPa] Relative humidity [%] Precipitation [mm]
Present Wind chill Speed Max
18.04 01:00-6,9-11,93,1 ⇘8,31013420,0
18.04 00:00-6,3-13,05,3 ⇓9,01012340,0
17.04 23:00-5,8-12,25,1 ⇓9,11012300,0
17.04 22:00-5,5-9,42,4 ⇓6,71012330,0
17.04 21:00-5,3-10,43,5 ⇘7,81011350,0
17.04 20:00-4,8-9,93,7 ⇘9,5101131n/a
17.04 19:00-4,0-9,94,9 ⇘9,31011280,0
17.04 18:00-3,1-8,44,4 ⇘11,81010300,0
17.04 17:00-2,9-9,05,8 ⇘12,81010280,0
17.04 16:00-3,1-9,86,8 ⇘12,51009270,0
17.04 15:00-3,5-10,36,7 ⇘13,01008290,0
17.04 14:00-4,1-11,27,1 ⇘14,51008260,0
17.04 13:00-3,7-10,46,5 ⇘14,31007280,0
17.04 12:00-5,0-13,39,0 ⇘14,31007260,0
17.04 11:00-5,5-13,58,0 ⇘14,31007250,0
17.04 10:00-6,3-15,39,8 ⇘17,31007270,0
17.04 09:00-6,9-16,611,1 ⇘19,41006300,0
17.04 08:00-7,4-17,912,8 ⇘19,81006300,0
17.04 07:00-7,9-18,011,4 ⇘21,21005320,0
17.04 06:00-8,2-19,313,9 ⇘20,11004290,0
17.04 05:00-8,5-19,212,4 ⇘21,61004320,0
17.04 04:00-8,3-19,313,4 ⇘22,31003310,0
17.04 03:00-8,4-19,313,2 ⇘21,91003320,0
17.04 02:00-8,4-19,413,4 ⇘20,11002320,0
17.04 01:00-8,6-18,911,2 ⇘19,81003350,0
Position: (60.716667,-46.033333)

[Back]